Regional Weather Roundup
Issued by NWS

Home | Current Version | Previous Version | Graphics & Text | Print | Product List | Glossary Off
Versions: 1 2 3 4 5 6 7 8 9 10 11 12 13 14 15 16 17 18 19 20 21 22 23 24 25 26 27 28 29 30 31 32 33 34 35 36 37 38 39 40 41 42 43 44 45 46 47 48 49 50

000
ASUS43 KDMX 130706
RWRIA

WEATHER ROUNDUP FOR IOWA
NATIONAL WEATHER SERVICE DES MOINES IA
100 AM CST WED DEC 13 2017

NOTE: "FAIR" INDICATES FEW OR NO CLOUDS BELOW 12,000 FEET WITH NO
SIGNIFICANT WEATHER AND/OR OBSTRUCTIONS TO VISIBILITY.

* - THESE STATIONS ARE NOT NWS STATIONS...THUS NOT UNDER NWS
QUALITY CONTROL.  THEY ALSO DO NOT REPORT WEATHER SUCH
AS PRECIPITATION OR FOG.

IAZ001>003-012>014-020>022-031>034-043>046-130800-
   NORTHWEST IOWA

CITY           SKY/WX    TMP DP  RH WIND       PRES   REMARKS
CARROLL *      CLOUDY    34  25  69 SW21      29.63F WCI  22
CHEROKEE *     PTCLDY    32  24  70 S6        29.59F WCI  27
DENISON *      CLOUDY    34  25  69 SW8       29.68F WCI  27
LE MARS *      CLOUDY    32  23  69 S9        29.60F WCI  24
ORANGE CITY *  CLOUDY    34  27  75 SW7       29.57F WCI  28
SHELDON *      CLOUDY    32  23  69 SW15      29.54F WCI  22
SIOUX CITY     CLEAR     26  21  81 S3        29.63F
SPENCER        CLOUDY    34  23  64 SW15      29.56F WCI  24
STORM LAKE *   CLEAR     34  23  64 SW12G18   29.59F WCI  25
$$

IAZ055>058-069>071-079>083-090>094-130800-
   SOUTHWEST IOWA

CITY           SKY/WX    TMP DP  RH WIND       PRES   REMARKS
ATLANTIC *     CLEAR     32  27  80 SW14      29.71F WCI  22
AUDUBON *      CLOUDY    34  27  75 S14G22    29.68F WCI  24
CLARINDA *     CLEAR     27  25  93 S7        29.78  WCI  19
COUNCIL BLFS * CLOUDY    36  27  69 SW12      29.70F WCI  27
CRESTON *      CLOUDY    30  25  80 S17       29.74F WCI  18
HARLAN  *      CLOUDY    28  25  86 S8        29.72F WCI  20
LAMONI         CLEAR     29  22  75 S14       29.78F WCI  18
RED OAK *      CLOUDY    28  25  86 SW6       29.74F WCI  22
SHENANDOAH *   CLEAR     32  25  74 S6        29.76F WCI  26
$$

IAZ047>049-059>061-072>074-084-130800-
   CENTRAL IOWA

CITY           SKY/WX    TMP DP  RH WIND       PRES   REMARKS
AMES           CLEAR     29  24  82 S5        29.68F WCI  24
ANKENY *       CLEAR     30  23  74 S7        29.72F WCI  23
BOONE *        CLOUDY    32  25  74 SW13G20   29.65F WCI  22
CHARITON *     CLEAR     28  23  80 S14       29.76F WCI  17
DES MOINES     CLOUDY    30  23  75 S10       29.71F WCI  21
GRINNELL*      CLOUDY    28  21  76 S16       29.74F WCI  15
KNOXVILLE *    CLOUDY    32  21  64 S14G22    29.72F WCI  22
MARSHALLTOWN   CLOUDY    30  22  72 S18       29.68F WCI  18
NEWTON *       CLOUDY    28  21  74 S13       29.72F WCI  18
PELLA *        CLOUDY    30  22  72 S15       29.75F WCI  19
PERRY *          N/A     30  24  77 S10       29.67F WCI  21
$$

IAZ004>006-015-016-023>025-035-036-130800-
   NORTH CENTRAL IOWA

CITY           SKY/WX    TMP DP  RH WIND       PRES   REMARKS
ALGONA *       CLOUDY    27  27 100 S13       29.56F WCI  16
CLARION *      CLOUDY    28  25  86 S13       29.61F WCI  18
ESTHERVILLE    CLOUDY    33  25  72 SW12      29.53F WCI  24
FORT DODGE *   CLOUDY    31  24  75 S10       29.62F WCI  22
MASON CITY     CLOUDY    28  21  75 S16       29.60F WCI  16
FOREST CITY *    N/A     30  25  80 S9        29.58F WCI  22
WEBSTER CITY * CLOUDY    32  23  69 SW17      29.60F WCI  21
IOWA FALLS *     N/A     29  23  79 S15       29.64F WCI  17
$$

IAZ007>011-017>019-026>030-037>042-050>054-066-130800-
   NORTHEAST IOWA

CITY           SKY/WX    TMP DP  RH WIND       PRES   REMARKS
CEDAR RAPIDS   CLOUDY    25  16  68 S10       29.74F WCI  15
CHARLES CITY * CLOUDY    25  21  86 S13       29.63F WCI  13
CLINTON *      CLOUDY    26  13  57 S8        29.81F WCI  18
DECORAH *      CLOUDY    25  19  80 S7        29.64F WCI  17
DUBUQUE        CLOUDY    24  14  65 S12       29.73F WCI  13
MONTICELLO *   MOCLDY    27  12  54 S9        29.75F WCI  17
OELWEIN *      CLOUDY    25  19  80 S12       29.68F WCI  14
WATERLOO       CLOUDY    26  19  74 S6        29.68F WCI  19
$$

IAZ064-065-067-068-078-130800-
   EAST CENTRAL IOWA

CITY           SKY/WX    TMP DP  RH WIND       PRES   REMARKS
DAVENPORT      CLOUDY    27  10  49 S9        29.83F WCI  18
IOWA CITY      CLOUDY    28  16  60 S8        29.80F WCI  20
MT. PLEASANT * CLOUDY    28  15  57 S13       29.84F WCI  17
MUSCATINE *    CLOUDY    28  12  50 S8        29.83F WCI  20
QUAD CITIES    CLOUDY    28  10  46 SW6       29.82F WCI  22
$$

IAZ062-063-075>077-085>089-095>099-130800-
   SOUTHEAST IOWA

CITY           SKY/WX    TMP DP  RH WIND       PRES   REMARKS
BURLINGTON     CLOUDY    27  15  61 SW10      29.85F WCI  17
FAIRFIELD *    CLOUDY    28  16  59 S9        29.80F WCI  20
FORT MADISON * PTCLDY    28  16  59 SW10      29.86F WCI  19
KEOKUK *       MOCLDY    27  14  59 SW9       29.86F WCI  17
OSKALOOSA *      N/A     28  21  74 S12       29.78F WCI  18
OTTUMWA        CLOUDY    28  19  69 S13       29.78F WCI  17
WASHINGTON *   CLOUDY    28  18  64 S12       29.81F WCI  18
$$

ABBREVIATIONS USED IN REMARKS
   TC - TEMPERATURES IN CELSIUS
  WCI - WIND CHILL INDEX
   HX - HEAT INDEX
  VSB - VISIBILITY
$$




USA.gov is the U.S. government's official web portal to all federal, state and local government web resources and services.